User: anonymous   Login
Location: SAPM � Hemmingford
(45.0500°N, 73.5833°W)
Time: 03:36:35
(UTC-04:00)
Language:

Cosmos 1674 Rocket - Orbit

View from above orbital plane
View from above orbital plane
View from above satellite
View from above satellite

Ground track
Ground track

The orbit data is extracted from the following two-line orbital elements,

1 15945U 85069B   15152.04823649  .00000211  00000-0  22620-4 0  9992
2 15945 082.5271 112.6323 0018667 224.3732 135.5989 14.83701453610238
Epoch (UTC): 01 June 2015 01:09:27
Eccentricity: 0.0018667
inclination: 82.5271°
perigee height: 604 km
apogee height: 631 km
right ascension of ascending node: 112.6323°
argument of perigee: 224.3732°
revolutions per day: 14.83701453
mean anomaly at epoch: 135.5989°
orbit number at epoch: 61023

The dashed part of the orbit path shows where the satellite is in the earth's shadow,  

DLR